This is the latest recevied weather packets stored in our database for station/object K5MGY. If no packets are shown the sender has not sent any weather packets the latest 10 day(s).
| Time | Temp. | Humidity | Pressure | Rain* | Wind** | Luminosity | Snow |
|---|---|---|---|---|---|---|---|
| 1778031056 | 25.56° C | 62% | 1029.6 hPa | 0 mm | - | 0 W/m² | - |
| 1778030752 | 25.56° C | 61% | 1029.5 hPa | 0 mm | - | 0 W/m² | - |
| 1778030449 | 26.11° C | 61% | 1029.5 hPa | 0 mm | - | 0 W/m² | - |
| 1778030147 | 26.11° C | 61% | 1029.5 hPa | 0 mm | - | 0 W/m² | - |
| 1778029843 | 26.67° C | 61% | 1029.8 hPa | 0 mm | - | 0 W/m² | - |
| 1778029542 | 26.67° C | 60% | 1029.6 hPa | 0 mm | - | 1 W/m² | - |
| 1778029238 | 26.67° C | 60% | 1029.4 hPa | 0 mm | - | 4 W/m² | - |
| 1778028935 | 26.67° C | 60% | 1029.1 hPa | 0 mm | - | 5 W/m² | - |
| 1778028631 | 27.22° C | 58% | 1028.8 hPa | 0 mm | - | 6 W/m² | - |
| 1778028329 | 27.22° C | 58% | 1029 hPa | 0 mm | - | 5 W/m² | - |
| 1778028026 | 27.22° C | 58% | 1029.3 hPa | 0 mm | - | 4 W/m² | - |
| 1778027722 | 27.78° C | 58% | 1028.9 hPa | 0 mm | - | 4 W/m² | - |
| 1778027418 | 27.78° C | 58% | 1029 hPa | 0 mm | - | 7 W/m² | - |
| 1778027114 | 28.33° C | 57% | 1028.8 hPa | 0 mm | - | 8 W/m² | - |
| 1778026810 | 28.33° C | 58% | 1028.9 hPa | 0 mm | - | 4 W/m² | - |
| 1778026507 | 28.89° C | 57% | 1029.2 hPa | 0 mm | - | 5 W/m² | - |
| 1778026204 | 29.44° C | 59% | 1028.9 hPa | 0 mm | - | 4 W/m² | - |
| 1778025901 | 29.44° C | 66% | 1028.8 hPa | 0 mm | - | 7 W/m² | - |
| 1778025598 | 29.44° C | 66% | 1028.4 hPa | 0 mm | - | 14 W/m² | - |
| 1778025296 | 30° C | 65% | 1028.3 hPa | 0 mm | - | 23 W/m² | - |
| 1778024993 | 30° C | 66% | 1028.4 hPa | 0 mm | - | 18 W/m² | - |
| 1778024690 | 30° C | 65% | 1028.3 hPa | 0 mm | - | 20 W/m² | - |
| 1778024387 | 30° C | 65% | 1028 hPa | 0 mm | - | 22 W/m² | - |
| 1778024084 | 30° C | 64% | 1028.2 hPa | 0 mm | - | 38 W/m² | - |
| 1778023782 | 30.56° C | 64% | 1028 hPa | 0 mm | - | 59 W/m² | - |
* Rain latest hour (hover to see other rain measurements)
** Current wind speed in m/s (hover to see current wind gust speed)